Location: Aurora Center
(43.5271°N, 98.5894°W)
Time: 01:26:57
(UTC-05:00)

BlueWalker 3 - Pass Details

Date: 26 June 2024
Orbit: 480 x 492 km, 53.2° (Epoch: 15 July)

Event Time Altitude Azimuth Distance (km) Brightness Sun altitude
Rises 02:36:44 0° 303° (WNW) 2,538 5.8 -21.8°
Reaches altitude 10° 02:38:55 10° 300° (WNW) 1,656 4.7 -21.7°
Enters shadow 02:41:06 32° 287° (WNW) 845 3.0 -21.6°
